CAPE
0 0 0 0 0 0 0 0 0 0 0 0 0 0 0 0 0 0 0 0 0 0 0 0 0 0 0 0 0 0 1 0
0 0 0 0 0 0 0 0 0 0 0 0 0 0 0 0 0 0 0 0 0 0 0 0 0 1 0 0 1 1 0 0
0 0 0 0 0 0 0 0 0 0 0 0 0 0 0 0 0 0 0 0 0 0 2 0 0 2 1 1 1 1 1 1
0 0 0 0 0 0 0 0 0 0 0 0 0 0 0 0 0 0 0 0 0 0 4 0 1 2 1 2 1 2 3 1
0 0 0 0 0 0 0 0 0 0 0 0 0 0 0 0 1 0 0 0 1 0 3 0 2 2 1 2 3 1 1 3
0 0 0 0 0 0 0 0 0 0 0 0 0 0 0 0 0 0 0 0 1 0 0 1 2 1 1 2 1 1 1 2
0 0 0 0 0 0 0 0 0 0 0 0 0 0 0 0 0 0 1 0 0 0 0 3 2 1 1 1 1 3 2 2
0 0 0 0 0 0 0 0 0 0 0 0 0 0 0 0 0 0 1 1 0 0 0 1 1 2 0 1 2 1 1 1
0 0 0 0 0 0 0 0 0 0 0 0 0 0 0 0 0 0 0 0 0 0 0 2 1 0 0 1 1 1 1 2
0 0 0 0 0 0 0 0 0 0 0 0 0 0 0 0 0 0 0 0 0 0 1 1 0 0 1 0 1 1 1 2
0 0 0 0 0 0 0 0 0 0 0 0 0 0 0 0 0 0 0 0 0 0 0 1 0 0 1 0 1 1 1 1
0 0 0 0 0 0 0 0 0 0 0 0 0 0 0 0 0 0 0 0 0 0 0 0 0 0 0 0 1 1 2 2
0 0 0 0 0 0 0 0 0 0 0 0 0 0 0 0 0 0 0 0 0 0 0 0 2 0 0 0 1 1 1 2
0 0 0 0 0 0 0 0 0 0 0 0 0 0 0 0 0 0 0 0 0 0 0 0 0 0 0 0 0 0 0 0
0 0 0 0 0 0 0 0 0 0 0 0 0 0 0 0 0 0 0 0 0 0 0 0 0 0 0 0 0 0 0 0
1 0 0 0 0 0 0 0 0 0 0 0 0 0 0 0 0 0 0 0 0 0 0 0 0 0 0 0 0 0 0 0
0 0 0 0 0 0 0 0 0 0 0 0 0 0 0 0 0 0 0 0 0 0 0 0 0 0 0 0 0 0 0 0
0 0 0 0 0 0 0 0 0 0 0 0 0 0 0 0 0 0 0 0 0 0 0 0 0 0 0 0 0 0 0 0
0 0 0 0 0 0 0 0 0 0 0 0 0 0 0 0 0 0 0 0 0 0 0 0 0 0 0 0 0 0 0 0
CIN
0 0 0 0 0 0 0 0 0 0 0 0 0 0 0 0 0 0 0 0 0 0 0 0 -0 0 0 0 0 0 -0 -0
0 0 0 0 0 0 0 0 0 0 0 0 0 0 0 0 0 0 0 0 0 0 0 0 0 -0 0 0 0 0 0 -2
0 0 0 0 0 0 0 0 0 0 0 0 0 0 0 0 0 0 0 0 0 0 -0 0 0 -0 0 0 0 0 0 0
0 0 0 0 0 0 0 0 0 0 0 0 0 0 0 0 0 0 0 0 0 0 0 0 -0 0 0 0 0 0 0 -0
0 0 0 0 0 0 0 0 0 0 0 0 0 0 0 0 -0 0 -0 -0 0 0 0 -0 -0 0 0 0 0 0 0 0
0 0 0 0 0 0 0 0 0 0 0 0 0 0 0 -0 -0 -0 -0 -0 -0 0 0 -0 -0 0 0 0 0 0 0 0
0 0 0 0 0 0 0 0 0 0 0 0 0 0 0 0 -0 -0 -0 0 -0 0 0 0 0 0 0 0 0 0 0 0
0 0 0 0 0 0 0 0 0 0 0 0 0 0 0 0 -0 0 0 0 0 0 0 0 -0 0 0 0 0 0 0 0
0 0 0 0 0 0 0 0 0 0 0 0 0 0 0 0 0 0 0 0 0 0 0 -0 0 0 0 0 0 0 0 0
0 0 0 0 0 0 0 0 0 0 0 0 0 0 0 0 0 0 0 0 0 0 0 0 0 0 0 0 0 0 0 0
0 0 0 0 0 0 0 0 0 0 0 0 0 0 0 0 0 0 0 0 0 0 0 -0 0 0 0 0 0 0 0 0
0 0 0 0 0 0 0 0 0 0 0 0 0 0 0 0 0 0 0 0 0 0 0 0 0 0 0 0 0 0 0 0
0 0 0 0 0 0 0 0 0 0 0 0 0 0 0 0 0 0 0 0 0 0 0 0 -0 0 0 0 0 0 0 0
0 0 0 0 0 0 0 0 0 0 0 0 0 0 0 0 0 0 0 0 0 0 0 0 0 0 0 0 0 0 0 0
0 0 0 0 0 0 0 0 0 0 0 0 0 0 0 0 0 0 0 0 0 0 0 0 0 0 0 0 0 0 0 0
0 0 0 0 0 0 0 0 0 0 0 0 0 0 0 0 0 0 0 0 0 0 0 0 0 0 0 0 0 0 0 0
0 0 0 0 0 0 0 0 0 0 0 0 0 0 0 0 0 0 0 0 0 0 0 0 0 0 0 0 0 0 0 0
0 0 0 0 0 0 0 0 0 0 0 0 0 0 0 0 0 0 0 0 0 0 0 0 0 0 -1 0 0 0 0 0
0 0 0 0 0 0 0 0 0 0 0 0 0 0 0 0 0 0 0 0 0 0 0 0 0 -1 -1 0 0 0 0 0
Wind_Speed
13 16 18 20 22 23 25 25 27 29 30 31 31 31 32 33 34 36 37 38 39 39 39 41 42 42 41 41 42 42 43 44
12 15 17 20 22 23 25 25 27 29 31 32 31 32 33 34 34 36 37 39 40 40 39 42 42 42 42 40 40 42 41 41
11 14 17 19 21 24 27 26 27 29 31 31 30 31 31 32 33 35 37 38 39 40 41 43 43 42 40 39 39 39 37 35
11 13 17 19 22 25 26 25 26 28 30 31 30 28 30 32 34 35 36 38 38 40 41 43 43 41 40 39 37 37 38 35
10 13 17 19 22 25 25 26 27 29 30 31 32 31 32 32 33 34 35 37 38 39 41 43 42 40 39 38 36 35 34 35
10 14 15 18 22 24 24 26 29 29 30 30 31 31 30 31 32 34 35 36 36 39 41 42 42 40 38 37 36 34 32 32
9 13 15 19 22 24 25 27 29 28 29 30 31 31 31 32 33 33 34 35 35 38 40 41 41 40 39 36 34 33 32 31
11 14 16 19 22 25 26 28 29 29 28 29 29 30 30 30 31 33 34 35 35 38 39 40 40 40 39 36 33 33 33 32
13 13 16 20 23 26 27 28 28 27 27 27 27 28 28 29 30 32 32 33 34 35 37 38 39 40 39 36 33 33 32 31
12 13 17 20 24 25 26 26 26 25 25 25 26 27 28 29 29 30 31 32 33 34 35 37 39 39 39 37 34 34 33 32
13 15 18 21 22 23 24 24 23 23 23 23 24 25 27 27 29 30 31 31 32 33 34 35 37 38 38 38 36 36 34 34
13 15 17 19 20 21 22 22 22 21 22 22 23 24 25 27 28 29 30 30 30 32 33 34 36 37 37 37 38 37 36 36
14 15 15 18 21 21 20 19 18 17 19 20 21 22 24 26 27 28 28 30 30 31 32 33 34 36 36 37 37 38 38 38
14 15 17 18 19 18 17 15 14 15 16 18 20 21 22 24 26 27 27 28 30 31 32 33 33 34 36 36 37 37 37 38
14 15 16 16 16 15 14 13 13 13 14 16 18 20 20 21 23 26 27 28 29 32 32 32 33 32 34 36 36 37 38 38
15 15 14 13 11 11 12 13 11 11 13 16 18 18 18 19 21 24 26 28 29 30 31 32 32 32 33 34 35 36 36 38
14 13 11 8 8 10 9 12 13 13 15 16 17 19 19 19 20 22 24 26 28 29 31 32 32 32 33 33 34 34 35 36
13 10 7 5 6 7 9 12 12 14 15 16 17 18 19 19 20 20 22 25 27 29 30 31 32 32 33 33 33 33 33 34
10 8 6 5 7 7 9 11 12 13 14 15 16 16 17 18 20 20 20 23 25 27 29 31 32 32 33 33 32 32 32 33
Wind_Direction
351 353 355 355 353 351 350 351 350 350 348 347 347 347 347 347 347 345 343 341 338 336 335 332 328 324 319 314 309 305 300 296
355 354 356 354 354 354 351 353 353 351 348 346 345 344 346 346 346 345 344 342 340 337 336 333 330 326 321 317 313 308 302 300
348 354 355 355 355 354 352 354 355 353 350 348 346 345 345 345 345 346 345 344 343 340 338 334 332 327 325 321 316 312 310 306
337 354 354 357 354 354 355 357 356 354 351 349 348 348 347 345 345 345 345 346 345 342 340 336 333 332 325 321 318 315 309 308
335 347 350 354 355 356 359 357 353 351 351 350 348 346 344 345 345 345 347 347 344 344 341 336 333 329 327 326 323 318 315 307
335 342 352 354 354 355 356 353 350 350 351 350 348 346 346 346 346 346 346 346 345 340 339 338 335 340 336 328 323 322 322 313
342 347 348 348 348 350 350 348 347 349 350 349 348 347 346 346 345 345 345 344 340 339 338 340 339 343 341 336 324 326 324 324
327 330 336 342 344 345 344 344 343 345 347 347 349 348 348 347 347 344 344 339 337 339 338 339 341 347 345 340 342 334 328 321
320 328 335 338 341 341 341 342 343 345 346 346 349 349 349 348 349 347 345 340 339 340 342 344 344 350 352 346 344 342 335 324
323 329 332 335 336 340 342 343 345 347 349 350 352 353 350 348 351 349 346 343 342 343 345 348 351 355 356 355 356 348 349 337
321 323 328 333 338 342 344 345 347 349 351 354 355 355 352 352 353 350 349 347 345 347 349 353 354 357 359 1 359 354 355 351
318 324 329 335 339 342 344 344 344 346 350 353 357 355 354 354 355 353 353 351 347 349 352 356 358 358 358 1 3 359 357 355
318 323 330 333 337 341 344 347 352 356 354 356 356 358 358 356 355 353 356 354 352 353 357 0 1 2 1 0 1 2 1 359
318 323 326 332 336 340 344 349 358 1 4 2 360 359 3 358 356 359 0 358 356 357 1 0 1 5 4 4 4 3 2 2
320 320 325 330 338 347 355 0 359 9 10 6 3 2 7 360 3 4 3 2 1 3 2 0 0 4 6 6 7 7 6 3
323 323 327 333 344 357 1 4 4 7 6 5 2 3 4 7 6 5 5 5 4 4 2 3 4 4 3 4 4 4 6 5
331 330 331 338 353 360 17 12 9 12 9 8 8 5 3 3 2 2 3 3 3 5 2 2 4 5 5 5 4 2 1 4
341 343 346 354 3 17 13 11 15 11 9 6 3 3 4 7 9 8 8 7 7 6 5 6 6 7 6 4 2 1 359 357
347 2 21 16 11 24 15 11 14 11 7 5 7 9 10 9 8 7 11 10 10 9 9 9 8 7 6 4 1 359 360 359